Epoch 2001 Nov. 27.0 TT = JDT 2452240.5 T 2001 Nov. 23.60351 TT MPC q 6.5308090 (2000.0) P Q z +0.0023782 Peri. 347.80144 +0.50511080 +0.74790147 +/-0.0000084 Node 310.67275 -0.73641607 +0.11324908 e 0.9844682 Incl. 34.60245 -0.45006050 +0.65407801
m1 = 6.5 + 5 logΔ + 10.0 log r